TimeEDT,TemperatureF,Dew PointF,Humidity,Sea Level PressureIn,VisibilityMPH,Wind Direction,Wind SpeedMPH,Gust SpeedMPH,PrecipitationIn,Events,Conditions,WindDirDegrees,DateUTC
12:53 AM,60.1,57.9,93,30.06,10.0,ESE,9.2,-,N/A,,Clear,120,2014-04-04 04:53:00
1:53 AM,61.0,59.0,93,30.05,10.0,Calm,Calm,-,N/A,,Clear,0,2014-04-04 05:53:00
2:53 AM,61.0,59.0,93,30.04,9.0,Calm,Calm,-,N/A,,Clear,0,2014-04-04 06:53:00
3:53 AM,57.9,57.0,97,30.02,8.0,Calm,Calm,-,N/A,,Clear,0,2014-04-04 07:53:00
4:53 AM,57.9,57.0,97,30.01,5.0,Calm,Calm,-,N/A,,Clear,0,2014-04-04 08:53:00
5:53 AM,55.9,55.0,97,30.01,5.0,Calm,Calm,-,N/A,,Clear,0,2014-04-04 09:53:00
6:10 AM,55.0,55.0,100,30.02,1.8,Calm,Calm,-,N/A,,Scattered Clouds,0,2014-04-04 10:10:00
6:17 AM,55.0,55.0,100,30.02,3.0,Calm,Calm,-,N/A,,Scattered Clouds,0,2014-04-04 10:17:00
6:53 AM,55.0,54.0,96,30.03,10.0,Calm,Calm,-,N/A,Fog,Patches of Fog,0,2014-04-04 10:53:00
7:53 AM,55.9,55.9,100,30.04,10.0,Calm,Calm,-,N/A,Fog,Patches of Fog,0,2014-04-04 11:53:00
8:53 AM,63.0,62.1,97,30.04,10.0,SSE,4.6,-,N/A,,Clear,160,2014-04-04 12:53:00
9:53 AM,70.0,63.0,78,30.06,10.0,South,6.9,-,N/A,,Partly Cloudy,190,2014-04-04 13:53:00
10:41 AM,73.0,63.0,71,30.07,10.0,South,10.4,-,N/A,,Mostly Cloudy,190,2014-04-04 14:41:00
10:53 AM,73.9,62.1,66,30.07,10.0,SW,12.7,17.3,N/A,,Mostly Cloudy,230,2014-04-04 14:53:00
11:53 AM,75.9,63.0,64,30.07,10.0,SW,10.4,-,N/A,,Mostly Cloudy,230,2014-04-04 15:53:00
12:23 PM,75.9,62.1,62,30.08,10.0,SW,9.2,-,N/A,,Scattered Clouds,220,2014-04-04 16:23:00
12:53 PM,77.0,62.1,60,30.08,10.0,SW,5.8,-,N/A,,Clear,230,2014-04-04 16:53:00
1:53 PM,80.1,62.1,54,30.07,10.0,SW,11.5,19.6,N/A,,Mostly Cloudy,230,2014-04-04 17:53:00
2:53 PM,80.1,61.0,52,30.05,10.0,WSW,11.5,20.7,N/A,,Mostly Cloudy,250,2014-04-04 18:53:00
3:53 PM,80.1,59.0,48,30.03,10.0,West,10.4,-,N/A,,Scattered Clouds,260,2014-04-04 19:53:00
4:53 PM,81.0,59.0,47,30.01,10.0,West,4.6,-,N/A,,Scattered Clouds,260,2014-04-04 20:53:00
5:53 PM,80.1,57.0,45,30.00,10.0,WSW,4.6,-,N/A,,Scattered Clouds,240,2014-04-04 21:53:00
6:53 PM,79.0,55.9,45,30.00,10.0,SSW,6.9,-,N/A,,Clear,210,2014-04-04 22:53:00
7:53 PM,73.9,57.0,55,30.01,10.0,SW,4.6,-,N/A,,Clear,230,2014-04-04 23:53:00
8:53 PM,71.1,59.0,66,30.01,10.0,WSW,4.6,-,N/A,,Clear,240,2014-04-05 00:53:00
9:53 PM,64.0,59.0,84,30.01,10.0,Calm,Calm,-,N/A,,Clear,0,2014-04-05 01:53:00
10:53 PM,66.9,63.0,87,30.00,10.0,SW,4.6,-,N/A,,Clear,230,2014-04-05 02:53:00
11:53 PM,64.9,63.0,93,29.98,10.0,SSW,4.6,-,N/A,,Clear,210,2014-04-05 03:53:00